Location: Bishop�s Knoyle
(51.0728°N, 2.1714°W)
Time: 14:07:36
(UTC+00:00)

Cosmos 1707 - Pass Details

Date: 18 September 2020
Orbit: 515 x 530 km, 82.5° (Epoch: 27 October)

Event Time Altitude Azimuth Distance (km) Brightness Sun altitude
Rises 19:14:48 0° 351° (N) 2,657 6.6 -10.1°
Reaches altitude 10° 19:16:58 10° 355° (N) 1,762 5.7 -10.4°
Maximum altitude 19:20:48 66° 78° (ENE) 569 2.7 -11.0°
Drops below altitude 10° 19:24:37 10° 161° (SSE) 1,742 5.0 -11.6°
Enters shadow 19:26:07 - 164° (SSE) 2,361 5.7 -11.8°
